Weather in Ikovka

Russia / Kurgan Oblast     55°36′26″N   64°56′31″E
temp.,
°C
wind,
m/s
gust,
m/s
humid.,
%
clouds,
%
prec.,
mm/h
press.,
hPa
HPBL,
m
26 february, fri
fri2623:00−26wnw239868 0.0 102925
02:00−27w229875 0.0 102919
05:00−27w229847 0.0 103019
08:00−26sw229997 0.0 103021
11:00−21ssw239394 0.0 1031232
14:00−19ssw349294 0.0 1031358
17:00−20s359586 0.0 1030262
20:00−26s379710 0.0 1030136
27 february, sat
sat2723:00−29s369910 0.0 1030113
02:00−30s369973 0.0 1029114
05:00−31s369974 0.0 1028105
08:00−32sse379823 0.0 1027135
11:00−25sse479516 0.0 1026258
14:00−19se589480 0.0 1023337
17:00−18se5109690 0.3 1020474
20:00−14se61395100 0.9 1017741
28 february, sun
sun2823:00−11sse61294100 1.9 1015820
02:00−12se51194100 0.7 1012644
05:00−11se51194100 1.4 1011559
08:00−12ese51095100 0.6 1009485
11:00−10ese5894100 1.4 1008484
14:00−8e4792100 0.4 1007514
17:00−9ene4893100 0.6 1006493
20:00−10ne4894100 0.1 1007341
1 march, mon
mon123:00−12ne4895100 0.2 1008297
02:00−14nne489499 0.1 1009309
05:00−16nne4895100 0.3 1010289
08:00−17nne4795100 0.3 1012303
11:00−15n4692100 0.4 1013349
14:00−13n3590100 0.1 1015491
17:00−13nnw3590100 0.1 1016502
20:00−16nw229691 0.1 101835
2 march, tue
tue223:00−17nw239691 0.1 102096
02:00−21wnw239859 0.0 101928
05:00−23w239729 0.0 101945
08:00−23wsw23970 0.0 101946
11:00−17sw35935 0.0 1018263
14:00−13sw469155 0.0 1016385
17:00−13ssw489266 0.0 1015374
20:00−18ssw4109582 0.0 1014242